User: anonymous   Login
Location: Unspecified
(0.0000°N, 0.0000°E)
Time: 03:15:04
(UTC+00:00)
Language:

GOES 1 - Orbit

View from above orbital plane
View from above orbital plane
View from above satellite
View from above satellite

Ground track
Ground track

The orbit data is extracted from the following two-line orbital elements,

1  8366U 75100A   18147.48772274 -.00000030 +00000-0 +00000-0 0  9992
2  8366 011.4612 314.3673 0003777 314.4811 031.4553 01.00237616155551
Epoch (UTC): 27 May 2018 11:42:19
Eccentricity: 0.0003777
inclination: 11.4612°
perigee height: 35780 km
apogee height: 35812 km
right ascension of ascending node: 314.3673°
argument of perigee: 314.4811°
revolutions per day: 1.00237616
mean anomaly at epoch: 31.4553°
orbit number at epoch: 15555

The dashed part of the orbit path shows where the satellite is in the earth's shadow,  

DLR